Location: Newark
(53.3333°N, 83.7500°E)
Time: 05:13:34
(UTC+00:00)

SR - Pass Details

Date: 15 November 2019
Orbit: 573 x 882 km, 66.7° (Epoch: 15 December)

Event Time Altitude Azimuth Distance (km) Brightness Sun altitude
Rises 13:53:19 0° 286° (WNW) 3,355 ? -30.1°
Reaches altitude 10° 13:56:16 10° 301° (WNW) 2,467 ? -30.6°
Maximum altitude 14:00:45 23° 352° (N) 1,782 ? -31.2°
Enters shadow 14:01:22 22° 1° (N) 1,803 ? -31.3°
